Total_Precipitation_Accumulation
0.26 0.24 0.25 0.32 0.34 0.27 0.14 0.06 0.03 0.03 0.04 0.05 0.09 0.13 0.14 0.15 0.18 0.24 0.20 0.17 0.22 0.27 0.33 0.55 0.78 0.94 1.02 1.03 1.02 0.96 0.84 0.93 1.03 1.05 1.08 1.18 1.22 1.16 1.20 1.13 1.14 1.19 1.27 1.28 1.26 1.23 1.16 1.03 0.93
0.26 0.30 0.37 0.42 0.29 0.19 0.11 0.05 0.04 0.05 0.05 0.05 0.09 0.12 0.11 0.10 0.09 0.13 0.19 0.19 0.21 0.24 0.30 0.45 0.76 0.95 1.06 1.11 1.09 1.04 0.98 0.96 0.99 0.97 1.03 1.17 1.26 1.25 1.21 1.13 1.13 1.18 1.25 1.28 1.24 1.17 1.14 1.10 0.96
0.35 0.45 0.50 0.45 0.25 0.11 0.08 0.05 0.04 0.06 0.06 0.07 0.10 0.13 0.14 0.15 0.12 0.15 0.19 0.17 0.22 0.25 0.30 0.49 0.80 0.99 1.06 1.10 1.08 1.04 1.03 0.99 0.98 0.95 1.02 1.17 1.22 1.22 1.13 1.07 1.05 1.09 1.21 1.30 1.24 1.08 1.04 1.05 0.98
0.45 0.62 0.64 0.45 0.21 0.09 0.07 0.05 0.04 0.06 0.06 0.09 0.11 0.13 0.15 0.17 0.15 0.18 0.20 0.20 0.26 0.30 0.36 0.55 0.80 0.98 1.09 1.13 1.12 1.10 1.07 1.03 1.03 1.03 1.07 1.16 1.17 1.19 1.12 1.04 0.98 0.97 1.02 1.12 1.13 1.05 0.99 0.95 0.86
0.54 0.67 0.65 0.38 0.16 0.09 0.07 0.05 0.05 0.06 0.07 0.09 0.12 0.14 0.15 0.19 0.18 0.20 0.21 0.25 0.27 0.35 0.44 0.61 0.92 1.05 1.15 1.25 1.22 1.16 1.13 1.11 1.10 1.15 1.16 1.19 1.16 1.15 1.10 1.06 1.00 0.95 0.92 0.97 1.06 1.05 1.02 0.96 0.84
0.72 0.71 0.52 0.31 0.16 0.10 0.07 0.06 0.06 0.07 0.07 0.09 0.12 0.14 0.19 0.21 0.23 0.25 0.27 0.30 0.30 0.41 0.54 0.69 1.03 1.18 1.27 1.30 1.34 1.29 1.25 1.27 1.25 1.24 1.26 1.25 1.18 1.10 1.05 1.06 0.99 0.92 0.85 0.83 0.89 0.92 0.92 0.92 0.85
0.72 0.66 0.40 0.22 0.18 0.13 0.09 0.07 0.08 0.08 0.10 0.11 0.12 0.15 0.23 0.26 0.25 0.28 0.34 0.37 0.41 0.53 0.67 0.82 1.06 1.24 1.39 1.39 1.40 1.42 1.38 1.36 1.37 1.36 1.31 1.25 1.18 1.14 1.09 1.04 0.97 0.92 0.87 0.80 0.79 0.82 0.81 0.78 0.75
0.75 0.77 0.46 0.24 0.19 0.15 0.10 0.09 0.09 0.09 0.10 0.12 0.14 0.16 0.21 0.25 0.24 0.32 0.46 0.50 0.55 0.69 0.86 0.98 1.15 1.30 1.39 1.44 1.45 1.44 1.42 1.40 1.39 1.38 1.30 1.20 1.17 1.16 1.10 0.98 0.95 0.97 0.97 0.89 0.82 0.78 0.76 0.71 0.65
0.83 0.93 0.51 0.22 0.18 0.16 0.13 0.12 0.11 0.11 0.13 0.14 0.16 0.17 0.19 0.24 0.29 0.39 0.54 0.65 0.73 0.81 0.99 1.16 1.29 1.41 1.49 1.50 1.47 1.61 1.63 1.59 1.55 1.44 1.36 1.32 1.28 1.20 1.06 0.90 0.90 0.99 1.02 0.94 0.86 0.82 0.75 0.71 0.61
0.87 0.77 0.40 0.18 0.15 0.17 0.17 0.18 0.17 0.17 0.18 0.17 0.18 0.19 0.23 0.32 0.39 0.47 0.57 0.63 0.76 0.83 0.96 1.16 1.36 1.49 1.59 1.62 1.67 1.78 1.81 1.77 1.67 1.42 1.34 1.35 1.25 1.17 1.03 0.96 0.95 1.00 1.00 0.96 0.91 0.88 0.87 0.81 0.63
0.70 0.53 0.30 0.19 0.15 0.19 0.22 0.21 0.20 0.24 0.25 0.22 0.26 0.27 0.33 0.44 0.51 0.61 0.69 0.69 0.70 0.78 0.93 1.10 1.36 1.62 1.67 1.69 1.79 1.82 1.80 1.76 1.71 1.57 1.42 1.35 1.36 1.30 1.22 1.12 1.11 1.13 1.08 1.06 1.02 1.02 0.93 0.85 0.74
0.53 0.39 0.30 0.26 0.21 0.23 0.26 0.27 0.26 0.27 0.28 0.26 0.33 0.39 0.44 0.53 0.59 0.65 0.78 0.80 0.75 0.82 0.93 1.08 1.33 1.59 1.69 1.69 1.76 1.78 1.69 1.58 1.52 1.47 1.50 1.49 1.44 1.33 1.25 1.19 1.17 1.21 1.16 1.11 1.08 1.01 0.92 0.83 0.76
0.48 0.33 0.27 0.28 0.24 0.26 0.27 0.28 0.27 0.26 0.25 0.28 0.30 0.37 0.46 0.52 0.64 0.72 0.89 1.01 0.92 0.89 0.98 1.16 1.37 1.54 1.70 1.79 1.83 1.79 1.67 1.54 1.50 1.44 1.46 1.43 1.31 1.23 1.13 1.08 1.09 1.02 1.00 0.99 0.98 0.97 0.93 0.84 0.80
0.42 0.31 0.26 0.29 0.30 0.28 0.32 0.29 0.25 0.24 0.23 0.28 0.33 0.35 0.42 0.51 0.63 0.78 0.96 1.04 0.99 0.94 1.06 1.27 1.46 1.63 1.78 1.76 1.81 1.81 1.73 1.67 1.71 1.62 1.41 1.37 1.31 1.24 1.18 1.08 1.05 0.99 0.91 0.89 0.90 0.87 0.90 0.87 0.78
0.42 0.42 0.36 0.27 0.28 0.29 0.38 0.40 0.25 0.21 0.25 0.29 0.33 0.35 0.39 0.47 0.61 0.73 0.89 0.98 1.00 1.03 1.18 1.35 1.49 1.73 1.90 1.87 1.85 1.85 1.85 1.81 1.74 1.74 1.67 1.50 1.38 1.32 1.29 1.20 1.08 1.05 1.02 1.00 0.99 0.96 0.95 0.94 0.87
0.62 0.69 0.59 0.33 0.26 0.30 0.51 0.51 0.23 0.19 0.26 0.30 0.31 0.36 0.41 0.45 0.55 0.69 0.84 1.01 1.09 1.18 1.32 1.44 1.61 1.80 1.94 1.98 1.98 1.91 1.87 1.93 1.85 1.81 1.84 1.81 1.61 1.44 1.36 1.30 1.20 1.17 1.19 1.18 1.14 1.07 1.03 0.98 0.94
0.86 0.78 0.52 0.32 0.25 0.35 0.54 0.47 0.23 0.20 0.26 0.29 0.30 0.34 0.36 0.43 0.52 0.64 0.76 0.93 1.10 1.23 1.38 1.50 1.64 1.84 2.03 2.12 2.10 2.08 1.97 1.95 1.97 1.94 1.87 1.91 1.93 1.72 1.51 1.39 1.36 1.38 1.39 1.32 1.23 1.15 1.06 1.02 0.97
0.74 0.54 0.39 0.31 0.26 0.34 0.43 0.34 0.23 0.22 0.26 0.27 0.30 0.35 0.34 0.41 0.48 0.59 0.74 0.90 1.09 1.21 1.41 1.59 1.72 1.88 2.08 2.28 2.32 2.30 2.21 2.04 2.00 1.98 1.86 1.80 1.87 1.90 1.77 1.59 1.51 1.52 1.53 1.47 1.35 1.24 1.18 1.13 1.13
0.52 0.53 0.42 0.26 0.23 0.40 0.40 0.30 0.25 0.24 0.27 0.30 0.31 0.37 0.37 0.41 0.50 0.57 0.75 0.91 1.08 1.23 1.38 1.53 1.66 1.81 2.03 2.20 2.29 2.29 2.21 2.05 1.97 1.91 1.85 1.83 1.86 1.90 1.89 1.71 1.62 1.50 1.47 1.44 1.38 1.33 1.31 1.25 1.25
0.60 0.67 0.52 0.37 0.28 0.43 0.43 0.33 0.27 0.25 0.28 0.31 0.32 0.38 0.39 0.40 0.49 0.53 0.67 0.87 0.98 1.11 1.25 1.49 1.66 1.75 1.92 2.09 2.12 2.23 2.21 2.12 2.01 1.92 1.88 1.81 1.82 1.91 2.00 1.91 1.80 1.71 1.61 1.57 1.59 1.55 1.48 1.40 1.31
0.66 0.60 0.52 0.50 0.44 0.48 0.54 0.47 0.28 0.24 0.23 0.27 0.29 0.34 0.36 0.41 0.45 0.47 0.59 0.76 0.91 1.00 1.13 1.33 1.61 1.79 1.86 2.07 2.35 2.55 2.62 2.45 2.29 2.10 1.94 1.82 1.79 1.82 1.94 2.02 1.97 1.93 1.87 1.75 1.62 1.62 1.61 1.59 1.45
0.72 0.39 0.44 0.54 0.82 0.88 0.70 0.82 0.33 0.23 0.20 0.24 0.28 0.31 0.32 0.36 0.39 0.43 0.52 0.66 0.79 0.92 1.11 1.29 1.42 1.69 1.92 2.06 2.32 2.55 2.66 2.49 2.15 2.02 1.98 1.91 1.83 1.81 1.82 1.89 1.92 1.90 1.87 1.79 1.67 1.57 1.53 1.62 1.66
0.59 0.41 0.48 0.63 0.97 1.13 0.74 0.87 0.40 0.25 0.25 0.24 0.28 0.30 0.31 0.35 0.39 0.40 0.47 0.57 0.69 0.88 1.07 1.26 1.38 1.58 1.87 2.07 2.18 2.46 2.61 2.50 2.33 2.20 2.06 1.94 1.89 1.85 1.79 1.78 1.84 1.88 1.85 1.81 1.74 1.69 1.68 1.69 1.68
0.58 0.69 0.80 0.95 1.55 1.87 0.68 0.67 0.47 0.35 0.35 0.28 0.29 0.33 0.35 0.38 0.44 0.42 0.46 0.56 0.64 0.85 0.99 1.21 1.38 1.48 1.74 2.00 2.17 2.32 2.53 2.63 2.52 2.38 2.26 2.09 2.01 1.95 1.86 1.74 1.76 1.85 1.88 1.86 1.86 1.83 1.81 1.83 1.75
0.93 1.57 2.31 2.50 2.55 1.52 0.37 0.49 0.53 0.35 0.31 0.35 0.40 0.42 0.42 0.42 0.46 0.47 0.49 0.57 0.60 0.78 0.92 1.11 1.35 1.40 1.52 1.74 1.98 2.19 2.40 2.58 2.66 2.49 2.29 2.18 2.15 2.06 1.90 1.79 1.72 1.76 1.77 1.76 1.78 1.88 1.91 1.91 1.92
0.95 1.38 1.86 1.74 1.15 0.57 0.33 0.48 0.46 0.36 0.31 0.30 0.35 0.40 0.38 0.40 0.44 0.50 0.53 0.55 0.58 0.65 0.78 0.97 1.22 1.31 1.35 1.49 1.68 1.98 2.25 2.45 2.57 2.60 2.39 2.22 2.11 2.00 1.89 1.82 1.72 1.67 1.68 1.71 1.74 1.78 1.82 1.85 1.85
0.94 1.04 0.94 1.33 0.95 0.61 0.49 0.44 0.35 0.26 0.22 0.23 0.29 0.35 0.37 0.42 0.46 0.52 0.60 0.61 0.63 0.65 0.71 0.87 1.13 1.26 1.25 1.36 1.49 1.70 1.99 2.26 2.40 2.45 2.45 2.33 2.18 2.05 1.96 1.86 1.83 1.77 1.74 1.72 1.70 1.70 1.69 1.72 1.78
0.76 0.93 1.11 1.71 1.53 0.91 0.55 0.40 0.49 0.40 0.31 0.26 0.29 0.37 0.41 0.43 0.48 0.53 0.63 0.68 0.69 0.67 0.70 0.83 1.01 1.25 1.30 1.31 1.39 1.51 1.69 1.94 2.18 2.38 2.48 2.33 2.23 2.15 2.17 2.08 1.96 1.86 1.86 1.84 1.78 1.70 1.60 1.63 1.68
0.87 1.14 1.40 1.44 1.17 1.00 0.76 0.61 0.63 0.53 0.46 0.40 0.36 0.38 0.44 0.46 0.52 0.57 0.64 0.71 0.74 0.72 0.74 0.85 0.97 1.17 1.37 1.41 1.38 1.48 1.61 1.82 1.99 2.09 2.25 2.35 2.33 2.22 2.25 2.25 2.17 2.05 1.97 1.95 1.93 1.87 1.79 1.74 1.65
0.87 1.02 1.22 1.53 1.16 0.73 0.76 0.68 0.53 0.44 0.41 0.40 0.38 0.39 0.45 0.52 0.59 0.62 0.65 0.69 0.72 0.76 0.78 0.81 0.96 1.13 1.27 1.43 1.47 1.50 1.60 1.80 1.94 1.93 1.95 2.08 2.26 2.26 2.24 2.37 2.35 2.25 2.14 2.07 2.08 2.08 2.01 1.97 1.87